User: anonymous   Login
Location: Unspecified
(50.0959°N, 14.3921°E)
Time: 03:08:31
(UTC+01:00)
Language:

Hubble Space Telescope - Orbit

View from above orbital plane
View from above orbital plane
View from above satellite
View from above satellite

Ground track
Ground track

The orbit data is extracted from the following two-line orbital elements,

1 20580U 90037B   19046.88273447  .00000411  00000-0  14091-4 0  9992
2 20580  28.4696 303.9796 0002583 240.4332 204.3770 15.09173577382310
Epoch (UTC): 15 February 2019 21:11:08
Eccentricity: 0.0002583
inclination: 28.4696°
perigee height: 537 km
apogee height: 540 km
right ascension of ascending node: 303.9796°
argument of perigee: 240.4332°
revolutions per day: 15.09173577
mean anomaly at epoch: 204.3770°
orbit number at epoch: 38231

The dashed part of the orbit path shows where the satellite is in the earth's shadow,  

DLR